[[{"header":{"parameterUnit":"m.s-1","parameterCategory":1,"la1":30.2991,"la2":30.254,"lo1":-89.0895,"lo2":-89.0444,"dy":0.0017,"dx":0.0017,"nx":28,"ny":28,"refTime":"2023-09-21T09:00:00:Z","depth":0,"parameterNumber":2,"parameterNumberName":"U-component_of_WINDS"},"data":[0,0,0,0,0,0,0,0,0,0,0,0,0,0,0,0,0,0,0,0,0,0,0,0,0,0,0,0,0,0,0,0,0,0,0,0,0,0,0,0,0,0,0,0,0,0,0,0,0,0,0,0,0,0,0,0,0,0,-3.9855,-3.9855,0,-3.9857,-3.9857,-3.9858,-3.976,-3.9757,-3.9755,-3.9752,-3.9759,-3.9761,-3.9764,0,0,0,0,0,0,0,0,0,0,0,0,0,-3.9771,-3.9773,-3.9855,-3.9855,-3.9855,-3.9857,-3.9857,-3.9858,-3.976,-3.9757,-3.9754,-3.9751,-3.9758,-3.9761,-3.9764,0,0,0,0,0,0,0,0,0,0,0,0,0,-3.9794,-3.9774,-3.9855,-3.9807,-3.9803,-3.9857,-3.9858,-3.9858,-3.9761,-3.9757,-3.9753,-3.975,-3.9757,-3.9761,-3.9764,-3.9867,0,0,-3.9776,-3.9778,0,0,0,0,0,0,0,0,-3.9793,-3.9797,-3.9814,-3.981,-3.9806,-3.9804,-3.983,-3.9861,-3.9762,-3.9777,-3.9752,-3.9748,-3.9777,-3.9779,-3.9788,-3.9867,-3.9867,-3.9777,-3.9779,-3.9781,-3.9782,0,0,0,0,0,0,0,-3.9791,-3.9797,-3.9856,-3.9814,-3.9809,-3.9787,-3.9786,-3.9835,-3.9799,-3.9775,-3.9768,-3.977,-3.9774,-3.9785,-3.9788,-3.9867,-3.9776,-3.978,-3.9782,-3.9784,-4.0034,-4.0038,0,0,0,0,0,0,-3.9796,-3.9796,-3.9856,-3.9856,-3.9789,-3.9791,-3.979,-3.9809,-3.9798,-3.9793,-3.9773,-3.9765,-3.978,-3.9783,-3.9788,-3.9909,-3.9781,-3.9784,-3.9786,-4.0029,-4.0035,-4.0039,0,0,0,0,0,0,-3.9794,-3.9802,-3.9856,-3.9824,-3.9829,-3.9797,-3.9819,-3.9811,-3.9821,-3.9796,-3.979,-3.979,-3.9777,-3.9782,-3.9848,-3.9908,-3.9786,-3.979,-4.0024,-4.0031,-4.0037,-4.0152,0,0,0,0,0,0,-3.9792,-3.9802,-3.9839,-3.9826,-3.9831,-3.9915,-3.9822,-3.9814,-3.9828,-3.9818,-3.9811,-3.9806,-3.9774,-3.9843,-3.9852,-3.9911,-3.9793,-4.0019,-4.0027,-4.0035,-4.0143,-4.0162,-4.0178,0,0,0,0,0,-3.979,-3.9872,-3.9842,-3.985,-3.9877,-3.9919,-3.9922,-3.9883,-3.9833,-3.9871,-3.9856,-3.9806,-3.99,-3.9851,-3.986,-3.9921,-4.0015,-4.0025,-4.0034,-4.0135,-4.0158,-4.0178,0,0,0,0,0,0,-3.9894,-3.9869,-3.9835,-3.9915,-3.992,-3.9902,-3.9949,-3.9908,-3.9928,-3.9918,-3.9869,-3.9869,-3.9944,-3.9938,-3.9884,-4.0022,-3.9949,-3.9961,-4.0022,-4.0044,-4.0061,-4.0062,-3.9796,0,0,0,0,0,-3.9926,-3.9961,-3.9937,-4.001,-4.0014,-3.9982,-3.9998,-3.9968,-3.9971,-3.9973,-3.9962,-3.9969,-4.0,-4.0021,-4.0048,-4.0141,-4.014,-4.0188,-4.0206,-4.022,-4.0232,-4.0285,-4.0307,-4.0071,-4.0071,-4.0071,0,0,-3.9993,-3.9984,-4.0008,-4.0031,-4.0031,-4.007,-3.9984,-4.0028,-4.0057,-3.998,-4.0042,-4.0035,-4.0039,-4.012,-4.0155,-4.0119,-4.0297,-4.0233,-4.0244,-4.0248,-4.0297,-4.0319,-4.0339,-4.0078,-4.0076,-4.0075,0,0,-4.0135,-4.0131,-4.0192,-4.0194,-4.0195,-4.0173,-4.0188,-4.0178,-4.017,-4.0231,-4.0175,-4.021,-4.0263,-4.0269,-4.028,-4.0427,-4.0384,-4.0437,-4.053,-4.0582,-4.06,-4.0617,-4.0672,-4.0693,-4.0449,-4.0449,-4.0449,0,-4.0219,-4.0274,-4.0229,-4.0278,-4.0291,-4.0222,-4.0286,-4.029,-4.0301,-4.0312,-4.027,-4.0338,-4.0335,-4.0419,-4.0455,-4.0465,-4.0483,-4.0439,-4.0601,-4.0617,-4.0631,-4.0684,-4.0705,-4.0456,-4.0455,-4.0454,-4.0454,0,-4.0378,-4.0418,-4.0467,-4.0479,-4.0498,-4.0554,-4.0519,-4.0543,-4.0512,-4.0496,-4.0561,-4.0556,-4.0582,-4.0599,-4.0569,-4.068,-4.0657,-4.0609,-4.0535,-4.0661,-4.071,-4.073,-4.0465,-4.0463,-4.0461,-4.0459,0,0,-4.0586,-4.0574,-4.0593,-4.0599,-4.0596,-4.0627,-4.0681,-4.0706,-4.0729,-4.0739,-4.0785,-4.0833,-4.0789,-4.0801,-4.0771,-4.0816,-4.0938,-4.0763,-4.0762,-4.0798,-4.1064,-4.1102,-4.1126,-4.0908,-4.0912,-4.0915,-4.1065,0,-4.0727,-4.0817,-4.078,-4.0875,-4.0913,-4.0849,-4.0896,-4.0901,-4.0888,-4.0919,-4.0904,-4.0941,-4.0878,-4.0885,-4.0927,-4.0914,-4.0991,-4.0903,-4.0954,-4.0956,-4.0957,-4.1151,-4.1191,-4.1333,-4.1083,-4.1086,-4.1088,0,-4.0902,-4.092,-4.1019,-4.1013,-4.1027,-4.107,-4.1092,-4.1122,-4.1127,-4.1114,-4.1129,-4.109,-4.1145,-4.107,-4.1148,-4.1088,-4.1107,-4.1104,-4.1109,-4.1114,-4.1032,-4.1165,-4.1376,-4.1399,-4.1118,-4.1115,-4.1113,0,-4.1048,-4.1097,-4.1163,-4.1169,-4.1162,-4.1195,-4.1194,-4.1195,-4.1214,-4.1233,-4.1245,-4.1271,-4.1285,-4.1307,-4.1277,-4.1225,-4.1361,-4.1282,-4.1354,-4.1355,-4.1387,-4.1386,-4.1608,-4.1395,-4.1395,-4.1394,-4.1394,0,-4.1211,-4.1275,-4.1229,-4.127,-4.1341,-4.1297,-4.1369,-4.1361,-4.1363,-4.1403,-4.1349,-4.1389,-4.1345,-4.1381,-4.1358,-4.1428,-4.1434,-4.1427,-4.1421,-4.1434,-4.1435,-4.1447,-4.1438,-4.14,-4.1399,-4.1398,-4.1397,0,-4.1386,-4.1357,-4.1426,-4.1414,-4.1413,-4.1466,-4.1456,-4.1495,-4.1478,-4.153,-4.154,-4.1514,-4.1554,-4.1525,-4.1565,-4.1549,-4.1642,-4.162,-4.1641,-4.1636,-4.171,-4.1705,-4.195,-4.1981,-4.1746,-4.1748,-4.175,0,-4.1492,-4.154,-4.1534,-4.1557,-4.1559,-4.1596,-4.1615,-4.1575,-4.1597,-4.1608,-4.1647,-4.1682,-4.1708,-4.1775,-4.1761,-4.1792,-4.1773,-4.1857,-4.1777,-4.179,-4.1778,-4.1777,-4.1783,-4.1874,-4.1876,-4.1879,-4.188,0,-4.1686,-4.167,-4.1698,-4.1723,-4.1747,-4.1765,-4.1778,-4.1801,-4.176,-4.1789,-4.1828,-4.1849,-4.189,-4.1927,-4.1953,-4.1954,-4.1913,-4.1905,-4.1924,-4.1939,-4.195,-4.1948,-4.1687,-4.19,-4.1898,-4.1897,-4.1896,-4.1895,-4.1832,-4.1873,-4.1875,-4.191,-4.1916,-4.1931,-4.1967,-4.1955,-4.1987,-4.2017,-4.1992,-4.2041,-4.2048,-4.2079,-4.2085,-4.2124,-4.209,-4.2117,-4.2124,-4.2132,-4.2144,-4.1942,-4.2129,-4.2128,-4.2127,-4.2127,-4.2126,0,-4.2025,-4.2024,-4.2056,-4.2077,-4.2105,-4.2062,-4.2075,-4.2103,-4.2146,-4.2155,-4.2182,-4.223,-4.2266,-4.2256,-4.2289,-4.2323,-4.2305,-4.2333,-4.2331,-4.2333,-4.2171,-4.2153,-4.2347,-4.2347,-4.2347,-4.2347,-4.2347,-4.2347,-4.2129,-4.2197,-4.2182,-4.2253,-4.2252,-4.2299,-4.2311,-4.2325,-4.2332,-4.2388,-4.2418,-4.241,-4.2413,-4.2446,-4.2478,-4.2474,-4.249,-4.2527,-4.2517,-4.2366,-4.2344,-4.2323,-4.2306,-4.253,-4.253,-4.2676,-4.2677,-4.2678]},{"header":{"parameterUnit":"m.s-1","parameterCategory":1,"la1":30.2991,"la2":30.254,"lo1":-89.0895,"lo2":-89.0444,"dy":0.0017,"dx":0.0017,"nx":28,"ny":28,"refTime":"2023-09-21T09:00:00:Z","depth":0,"parameterNumber":3,"parameterNumberName":"V-component_of_WINDS"},"data":[0,0,0,0,0,0,0,0,0,0,0,0,0,0,0,0,0,0,0,0,0,0,0,0,0,0,0,0,0,0,0,0,0,0,0,0,0,0,0,0,0,0,0,0,0,0,0,0,0,0,0,0,0,0,0,0,0,0,-0.9334,-0.9334,0,-0.9361,-0.9361,-0.9361,-0.936,-0.936,-0.9359,-0.9359,-0.9388,-0.9389,-0.939,0,0,0,0,0,0,0,0,0,0,0,0,0,-0.9283,-0.9284,-0.9334,-0.9334,-0.9335,-0.9361,-0.9361,-0.9361,-0.936,-0.936,-0.9359,-0.9359,-0.9387,-0.9389,-0.939,0,0,0,0,0,0,0,0,0,0,0,0,0,-0.9307,-0.9284,-0.9334,-0.9337,-0.9338,-0.9361,-0.9361,-0.9362,-0.936,-0.936,-0.9359,-0.9359,-0.9387,-0.9388,-0.939,-0.9412,0,0,-0.9395,-0.9396,0,0,0,0,0,0,0,0,-0.9306,-0.9309,-0.9336,-0.9337,-0.9338,-0.9356,-0.9354,-0.9379,-0.936,-0.9352,-0.9359,-0.9358,-0.9378,-0.938,-0.9387,-0.9413,-0.9415,-0.9395,-0.9396,-0.9397,-0.9398,0,0,0,0,0,0,0,-0.9304,-0.9308,-0.9345,-0.9337,-0.9337,-0.9338,-0.934,-0.9358,-0.9368,-0.9352,-0.9352,-0.9355,-0.9378,-0.9385,-0.9387,-0.9415,-0.9395,-0.9397,-0.9398,-0.9399,-0.9463,-0.9463,0,0,0,0,0,0,-0.9302,-0.9307,-0.9344,-0.9345,-0.932,-0.9339,-0.9342,-0.9351,-0.9367,-0.9369,-0.9356,-0.9355,-0.9382,-0.9385,-0.9388,-0.9416,-0.9397,-0.9399,-0.94,-0.9462,-0.9463,-0.9463,0,0,0,0,0,0,-0.9301,-0.9305,-0.9343,-0.9326,-0.9331,-0.9341,-0.935,-0.9352,-0.9359,-0.937,-0.9372,-0.9361,-0.9382,-0.9386,-0.9406,-0.9417,-0.9399,-0.9401,-0.9461,-0.9462,-0.9463,-0.9472,0,0,0,0,0,0,-0.9299,-0.9305,-0.9313,-0.9326,-0.9332,-0.936,-0.9351,-0.9353,-0.9361,-0.9361,-0.9376,-0.9377,-0.9382,-0.9404,-0.9408,-0.9419,-0.9402,-0.946,-0.9462,-0.9463,-0.9471,-0.9473,-0.9475,0,0,0,0,0,-0.9297,-0.9314,-0.9313,-0.9318,-0.9342,-0.9361,-0.9364,-0.9368,-0.9362,-0.9371,-0.9378,-0.9377,-0.9415,-0.9406,-0.9411,-0.9423,-0.946,-0.9461,-0.9463,-0.947,-0.9473,-0.9475,0,0,0,0,0,0,-0.9302,-0.9316,-0.9315,-0.9336,-0.9347,-0.936,-0.9371,-0.9371,-0.9384,-0.9383,-0.9388,-0.9391,-0.9412,-0.9419,-0.9409,-0.9445,-0.9437,-0.9439,-0.944,-0.9443,-0.9445,-0.9444,-0.9404,0,0,0,0,0,-0.9305,-0.9319,-0.933,-0.9348,-0.9354,-0.9362,-0.937,-0.9372,-0.9384,-0.9389,-0.9397,-0.9409,-0.9424,-0.9434,-0.9448,-0.9471,-0.9475,-0.9481,-0.9484,-0.9485,-0.9488,-0.9503,-0.9506,-0.9469,-0.9469,-0.9469,0,0,-0.9313,-0.9322,-0.933,-0.935,-0.9358,-0.9373,-0.9366,-0.9381,-0.9392,-0.9391,-0.9412,-0.9418,-0.9432,-0.9454,-0.9464,-0.9461,-0.9499,-0.9487,-0.9489,-0.9491,-0.9504,-0.9508,-0.9511,-0.947,-0.9469,-0.9469,0,0,-0.9334,-0.9342,-0.9359,-0.9367,-0.9381,-0.9386,-0.939,-0.9403,-0.9407,-0.9427,-0.9427,-0.944,-0.9465,-0.9475,-0.9484,-0.9509,-0.9509,-0.9513,-0.9526,-0.954,-0.9543,-0.9545,-0.9556,-0.956,-0.9516,-0.9516,-0.9516,0,-0.9342,-0.9364,-0.9367,-0.9383,-0.9392,-0.9391,-0.9408,-0.9417,-0.9434,-0.9441,-0.9435,-0.9467,-0.9476,-0.9502,-0.9508,-0.9514,-0.952,-0.9513,-0.9542,-0.9544,-0.9547,-0.9557,-0.9561,-0.9516,-0.9516,-0.9516,-0.9516,0,-0.9374,-0.9389,-0.9401,-0.9418,-0.9428,-0.9444,-0.945,-0.946,-0.9461,-0.9467,-0.9488,-0.9499,-0.9516,-0.9521,-0.9523,-0.9547,-0.9545,-0.954,-0.9532,-0.9551,-0.9561,-0.9565,-0.9517,-0.9517,-0.9517,-0.9517,0,0,-0.94,-0.9418,-0.9423,-0.9431,-0.9445,-0.9458,-0.9474,-0.949,-0.9499,-0.9511,-0.9526,-0.9547,-0.9543,-0.9553,-0.9555,-0.9567,-0.9589,-0.9562,-0.9562,-0.9568,-0.9618,-0.9623,-0.9627,-0.9588,-0.9588,-0.9589,-0.9618,0,-0.9425,-0.9455,-0.9458,-0.9485,-0.9499,-0.9498,-0.9513,-0.9524,-0.953,-0.9543,-0.955,-0.9565,-0.9558,-0.9564,-0.9576,-0.9584,-0.9599,-0.9581,-0.9603,-0.9604,-0.9602,-0.9632,-0.9637,-0.9664,-0.9622,-0.9622,-0.9623,0,-0.9458,-0.9471,-0.9499,-0.9512,-0.9519,-0.9532,-0.9547,-0.956,-0.9572,-0.9576,-0.9586,-0.9587,-0.9605,-0.9595,-0.962,-0.9608,-0.9617,-0.9622,-0.9623,-0.9627,-0.9616,-0.9639,-0.9672,-0.9677,-0.9628,-0.9628,-0.9628,0,-0.9477,-0.9501,-0.9521,-0.9528,-0.9543,-0.9553,-0.956,-0.9571,-0.9581,-0.9595,-0.9601,-0.9616,-0.9625,-0.9637,-0.9643,-0.9634,-0.9669,-0.9658,-0.9673,-0.9673,-0.9683,-0.9682,-0.972,-0.9685,-0.9685,-0.9684,-0.9684,0,-0.9505,-0.9523,-0.953,-0.9543,-0.9563,-0.9567,-0.9587,-0.9593,-0.9604,-0.9618,-0.9617,-0.9631,-0.9636,-0.9651,-0.9655,-0.9677,-0.968,-0.9685,-0.9686,-0.9686,-0.9686,-0.9694,-0.9693,-0.9686,-0.9685,-0.9685,-0.9685,0,-0.953,-0.9535,-0.9558,-0.9571,-0.9574,-0.9589,-0.96,-0.9613,-0.9618,-0.9637,-0.9641,-0.965,-0.9667,-0.9673,-0.9694,-0.9697,-0.9723,-0.9721,-0.9719,-0.972,-0.9735,-0.9735,-0.9781,-0.9788,-0.9746,-0.9746,-0.9747,0,-0.9549,-0.9563,-0.9577,-0.9587,-0.9594,-0.9609,-0.9619,-0.9623,-0.9634,-0.9649,-0.966,-0.9678,-0.9692,-0.972,-0.9728,-0.9745,-0.9745,-0.976,-0.9748,-0.9748,-0.9748,-0.9748,-0.975,-0.9763,-0.9764,-0.9764,-0.9764,0,-0.9582,-0.9584,-0.9599,-0.9614,-0.9626,-0.9639,-0.9651,-0.9659,-0.9664,-0.9676,-0.9694,-0.9705,-0.9727,-0.9744,-0.9761,-0.9769,-0.9768,-0.9768,-0.9772,-0.9774,-0.9773,-0.9776,-0.9728,-0.9767,-0.9767,-0.9767,-0.9766,-0.9766,-0.9606,-0.9619,-0.9632,-0.9648,-0.9657,-0.9669,-0.9682,-0.9688,-0.9703,-0.9721,-0.9722,-0.9742,-0.9755,-0.9777,-0.9785,-0.9801,-0.9797,-0.9804,-0.9806,-0.9808,-0.981,-0.9768,-0.9804,-0.9804,-0.9804,-0.9804,-0.9804,0,-0.9641,-0.9649,-0.9664,-0.9681,-0.9694,-0.9691,-0.9705,-0.9716,-0.9733,-0.9745,-0.9759,-0.978,-0.9797,-0.9807,-0.9824,-0.9835,-0.9835,-0.984,-0.984,-0.9843,-0.9812,-0.9807,-0.9839,-0.9839,-0.9839,-0.9839,-0.9839,-0.9839,-0.9662,-0.9684,-0.9687,-0.9714,-0.9722,-0.9741,-0.975,-0.976,-0.977,-0.9793,-0.9808,-0.9813,-0.9825,-0.9843,-0.9859,-0.9861,-0.9869,-0.9874,-0.9876,-0.9848,-0.9844,-0.9841,-0.9837,-0.9875,-0.9875,-0.9906,-0.9906,-0.9906]}]]